When you browse on this site, cookies collect data to enhance your experience and personalize the content and advertising you see.
Visit our Privacy Policy to learn more. By continuing to use the site, you agree to this use of cookies and data.
  • In Latvia
  • List of Countries
  • For 7 days
  • Water Temperature
  • Satellite Maps
  • Weather Map
  • Weather Widgets
  • user-avatar
    Login

    Hourly Weather Nemchino

    Today, 22 February, Friday

    Time Temperature Precipitation Wind Pressure Humidity
    00:00 -14°C° 0.1 mm 6 mps 739 mmHg 78%
    01:00 -14°C° 0.1 mm 6 mps 739 mmHg 78%
    02:00 -14°C° 0 mm 6 mps 740 mmHg 79%
    03:00 -15°C° 0.2 mm 6 mps 740 mmHg 80%
    04:00 -15°C° 0.2 mm 7 mps 741 mmHg 80%
    05:00 -15°C° 0.2 mm 7 mps 741 mmHg 80%
    06:00 -15°C° 0.1 mm 7 mps 742 mmHg 79%
    07:00 -15°C° 0.1 mm 7 mps 742 mmHg 77%
    08:00 -15°C° 0 mm 7 mps 743 mmHg 75%
    09:00 -14°C° 0 mm 7 mps 744 mmHg 73%
    10:00 -15°C° 0 mm 8 mps 745 mmHg 71%
    11:00 -13°C° 0 mm 8 mps 745 mmHg 70%
    12:00 -13°C° 0 mm 7 mps 746 mmHg 69%
    13:00 -12°C° 0 mm 7 mps 747 mmHg 68%
    14:00 -12°C° 0 mm 7 mps 748 mmHg 68%
    15:00 -11°C° 0 mm 6 mps 749 mmHg 70%
    16:00 -11°C° 0 mm 6 mps 749 mmHg 72%
    17:00 -11°C° 0 mm 5 mps 750 mmHg 74%
    18:00 -12°C° 0 mm 5 mps 751 mmHg 77%
    19:00 -12°C° 0 mm 5 mps 752 mmHg 79%
    20:00 -12°C° 0 mm 5 mps 752 mmHg 81%
    21:00 -13°C° 0 mm 5 mps 753 mmHg 84%
    22:00 -14°C° 0 mm 4 mps 753 mmHg 87%
    23:00 -14°C° 0 mm 4 mps 754 mmHg 90%

    Tomorrow, 23 February, Saturday

    Time Temperature Precipitation Wind Pressure Humidity
    00:00 -14°C° 0 mm 3 mps 754 mmHg 89%
    01:00 -14°C° 0 mm 3 mps 755 mmHg 89%
    02:00 -15°C° 0 mm 3 mps 755 mmHg 89%
    03:00 -15°C° 0 mm 3 mps 755 mmHg 88%
    04:00 -14°C° 0 mm 2 mps 755 mmHg 86%
    05:00 -15°C° 0 mm 2 mps 755 mmHg 84%
    06:00 -14°C° 0 mm 2 mps 755 mmHg 82%
    07:00 -13°C° 0 mm 2 mps 755 mmHg 80%
    08:00 -13°C° 0 mm 3 mps 755 mmHg 78%
    09:00 -12°C° 0 mm 3 mps 754 mmHg 73%
    10:00 -9°C° 0 mm 3 mps 754 mmHg 68%
    11:00 -9°C° 0 mm 4 mps 753 mmHg 63%
    12:00 -9°C° 0.1 mm 4 mps 753 mmHg 69%
    13:00 -10°C° 0.1 mm 5 mps 752 mmHg 75%
    14:00 -10°C° 0.1 mm 5 mps 751 mmHg 81%
    15:00 -10°C° 0.8 mm 5 mps 750 mmHg 84%
    16:00 -10°C° 0.8 mm 5 mps 749 mmHg 88%
    17:00 -10°C° 0.8 mm 5 mps 748 mmHg 91%
    18:00 -8°C° 0.5 mm 5 mps 748 mmHg 90%
    19:00 -7°C° 0.5 mm 5 mps 747 mmHg 90%
    20:00 -7°C° 0.5 mm 5 mps 747 mmHg 89%
    21:00 -5°C° 0.3 mm 4 mps 746 mmHg 89%
    22:00 -3°C° 0.3 mm 4 mps 746 mmHg 90%
    23:00 -2°C° 0.3 mm 4 mps 746 mmHg 90%

    Day after tomorrow, 24 February, Sunday

    Time Temperature Precipitation Wind Pressure Humidity
    00:00 -2°C° 0.3 mm 4 mps 746 mmHg 90%
    01:00 -1°C° 0.3 mm 4 mps 746 mmHg 91%
    02:00 -1°C° 0.3 mm 4 mps 746 mmHg 91%
    03:00 -1°C° 0 mm 4 mps 746 mmHg 91%
    04:00 -1°C° 0 mm 4 mps 746 mmHg 92%
    05:00 -1°C° 0 mm 4 mps 746 mmHg 93%
    06:00 -1°C° 0 mm 4 mps 746 mmHg 93%
    07:00 -1°C° 0 mm 4 mps 746 mmHg 93%
    08:00 -1°C° 0 mm 4 mps 747 mmHg 94%
    09:00 -1°C° 0 mm 4 mps 747 mmHg 94%
    10:00 0°C° 0 mm 4 mps 747 mmHg 94%
    11:00 0°C° 0 mm 4 mps 747 mmHg 94%
    12:00 +1°C° 0 mm 3 mps 747 mmHg 94%
    13:00 +1°C° 0 mm 3 mps 747 mmHg 94%
    14:00 +1°C° 0 mm 3 mps 747 mmHg 94%
    15:00 +1°C° 0 mm 2 mps 747 mmHg 94%
    16:00 +1°C° 0 mm 2 mps 747 mmHg 95%
    17:00 +1°C° 0 mm 2 mps 747 mmHg 95%
    18:00 +1°C° 0 mm 2 mps 747 mmHg 95%
    19:00 +1°C° 0 mm 2 mps 747 mmHg 95%
    20:00 -1°C° 0 mm 2 mps 747 mmHg 95%
    21:00 -1°C° 0.1 mm 2 mps 746 mmHg 95%
    22:00 -1°C° 0.1 mm 2 mps 746 mmHg 95%
    23:00 +1°C° 0.1 mm 2 mps 745 mmHg 95%

    25 February, Monday

    Time Temperature Precipitation Wind Pressure Humidity
    00:00 0°C° 0.2 mm 3 mps 745 mmHg 95%
    01:00 0°C° 0.2 mm 3 mps 744 mmHg 94%
    02:00 0°C° 0.2 mm 3 mps 744 mmHg 94%
    03:00 -1°C° 0.2 mm 4 mps 743 mmHg 93%
    04:00 -1°C° 0.2 mm 4 mps 743 mmHg 93%
    05:00 -1°C° 0.2 mm 5 mps 743 mmHg 92%
    06:00 -1°C° 0 mm 5 mps 743 mmHg 91%
    07:00 -1°C° 0 mm 5 mps 743 mmHg 89%
    08:00 -1°C° 0 mm 5 mps 743 mmHg 88%
    09:00 -1°C° 0 mm 5 mps 743 mmHg 87%
    10:00 -1°C° 0 mm 5 mps 743 mmHg 86%
    11:00 -1°C° 0 mm 5 mps 743 mmHg 85%
    12:00 -1°C° 0 mm 5 mps 742 mmHg 84%
    13:00 -2°C° 0 mm 6 mps 742 mmHg 84%
    14:00 -2°C° 0 mm 6 mps 741 mmHg 84%
    15:00 -2°C° 0.1 mm 6 mps 741 mmHg 84%
    16:00 -2°C° 0.1 mm 6 mps 740 mmHg 83%
    17:00 -2°C° 0.1 mm 5 mps 740 mmHg 83%
    18:00 -1°C° 0 mm 5 mps 740 mmHg 82%
    19:00 -2°C° 0 mm 6 mps 739 mmHg 82%
    20:00 -2°C° 0 mm 6 mps 739 mmHg 81%
    21:00 -2°C° 0.1 mm 6 mps 739 mmHg 81%
    22:00 -2°C° 0.1 mm 6 mps 739 mmHg 81%
    23:00 -2°C° 0.1 mm 6 mps 739 mmHg 81%

    26 February, Tuesday

    Time Temperature Precipitation Wind Pressure Humidity
    00:00 -2°C° 0 mm 5 mps 739 mmHg 83%
    01:00 -2°C° 0 mm 5 mps 739 mmHg 85%
    02:00 -3°C° 0 mm 4 mps 739 mmHg 87%
    03:00 -3°C° 0 mm 4 mps 738 mmHg 87%
    04:00 -2°C° 0 mm 3 mps 738 mmHg 88%
    05:00 -2°C° 0 mm 3 mps 737 mmHg 88%
    06:00 -2°C° 0 mm 2 mps 737 mmHg 89%
    07:00 -2°C° 0 mm 2 mps 736 mmHg 90%
    08:00 -2°C° 0 mm 2 mps 736 mmHg 91%
    09:00 -2°C° 0.1 mm 2 mps 735 mmHg 91%
    10:00 -2°C° 0.1 mm 2 mps 734 mmHg 90%
    11:00 0°C° 0.1 mm 1 mps 734 mmHg 89%
    12:00 +1°C° 0.2 mm 1 mps 733 mmHg 89%
    13:00 +1°C° 0.2 mm 1 mps 733 mmHg 89%
    14:00 +1°C° 0.2 mm 1 mps 732 mmHg 89%
    15:00 +1°C° 0 mm 1 mps 733 mmHg 91%
    16:00 0°C° 0 mm 1 mps 733 mmHg 92%
    17:00 0°C° 0 mm 1 mps 733 mmHg 94%
    18:00 0°C° 0 mm 1 mps 734 mmHg 94%
    19:00 -2°C° 0 mm 2 mps 734 mmHg 94%
    20:00 -2°C° 0 mm 2 mps 735 mmHg 94%
    21:00 -2°C° 0 mm 2 mps 736 mmHg 93%
    22:00 -2°C° 0 mm 2 mps 736 mmHg 92%
    23:00 -4°C° 0 mm 3 mps 737 mmHg 92%

    27 February, Wednesday

    Time Temperature Precipitation Wind Pressure Humidity
    00:00 -4°C° 0 mm 3 mps 738 mmHg 91%
    01:00 -4°C° 0 mm 3 mps 738 mmHg 91%
    02:00 -4°C° 0 mm 3 mps 739 mmHg 91%
    03:00 -4°C° 0 mm 3 mps 739 mmHg 92%
    04:00 -4°C° 0 mm 3 mps 740 mmHg 92%
    05:00 -5°C° 0 mm 3 mps 740 mmHg 93%
    06:00 -5°C° 0 mm 3 mps 741 mmHg 92%
    07:00 -5°C° 0 mm 4 mps 741 mmHg 90%
    08:00 -5°C° 0 mm 4 mps 742 mmHg 88%
    09:00 -5°C° 0 mm 4 mps 742 mmHg 86%
    10:00 -4°C° 0 mm 3 mps 742 mmHg 84%
    11:00 -4°C° 0 mm 3 mps 742 mmHg 82%
    12:00 -4°C° 0 mm 3 mps 742 mmHg 81%
    13:00 -4°C° 0 mm 3 mps 742 mmHg 79%
    14:00 -2°C° 0 mm 3 mps 741 mmHg 78%
    15:00 -4°C° 0 mm 3 mps 741 mmHg 82%
    16:00 -3°C° 0 mm 2 mps 740 mmHg 85%
    17:00 -4°C° 0 mm 2 mps 740 mmHg 89%
    18:00 -5°C° 0 mm 3 mps 739 mmHg 90%
    19:00 -5°C° 0 mm 3 mps 738 mmHg 90%
    20:00 -5°C° 0 mm 3 mps 738 mmHg 91%
    21:00 -5°C° 0 mm 4 mps 737 mmHg 91%
    22:00 -4°C° 0 mm 4 mps 735 mmHg 90%
    23:00 -4°C° 0 mm 4 mps 734 mmHg 90%
    Show more